SL-12 R/B(AUX MOTOR), 15335

Orbit data source: Space-Track

SL-12 R/B(AUX MOTOR), 15335 is space debris in LEO originally from a launch on Fri, 28 Sep 1984 UTC launched from the Tyuratam Missile And Space Complex (TTMTR). Debris objects in space refer to the collection of defunct objects orbiting the Earth. Examples of debris include non-operational satellites, rocket bodies, and fragments generated from explosions, collisions, or faulty payload assembly.

Loading next visibility...
Identifier
15335, 1984-106C
Orbit
LEO
Country
Flag of CISCIS
Related business
Manufacturer
NPO Energiya
Mission
Spacecraft
Bus & Motor
SOZ, Unknown motor
Mass
110 kg wet, 56 kg dry
Launch date (UTC)
1984-09-28 (42 years ago)
Launch vehicle
Unknown
Launch site
Tyuratam Missile And Space Complex (TTMTR)
Object type
Payload
Rocket body
Debris
Shape & HBR
Unknown
Radar Cross Section
Large (>1 m²)

Expand to show TLE details & history
Last TLE update: 2 days ago

TLE from 2 days ago
0 SL-12 R/B(AUX MOTOR)
1 15335U 84106C   26171.45851939 -.00000027  00000-0  25987-4 0  9992
2 15335  66.5533 340.4317 0020164 240.5128 148.5965 14.23146245164612
Epoch: 2026-06-20T11:00Z
TLE epoch observation values (Epoch: 2026-06-20T11:00:16.075Z)
Latitude
26.66659°
Longitude
-80.79503°
Altitude
829.54 km
Speed
7.435 km/s
True Right ascension
23h 31m 46s
True Declination
26° 31' 49"
Sunlit
Object was in daylight at epoch
Visualization orbit readout
Latitude
Unknown
Longitude
Unknown
Altitude
Unknown
Speed
Unknown
Apparent Right ascension
Unknown
Apparent Declination
Unknown
Sunlit
N/A
Visualization observer readout
Local Sidereal Time
23:21:07
Azimuth
Unknown
Elevation
Unknown
Doppler factor
Unknown
Orbital elements
Apogee altitude
827.63 km
Perigee altitude
798.629 km
Semi-major axis
7,191.266 km
Eccentricity
0.00202
Inclination
66.5533°
RAAN
340.4317°
Arg. of periapsis
240.5128°
True anomaly
148.71664°
Mean anomaly
148.5965°
Eccentric anomaly
148.6566°
Mean motion
3.55906 °/min
Orbital period
101.15 mins
BSTAR
0.000025987
Loading maneuver chart data...
Computing Atmospheric mass density...
Loading historical data...
Loading historical data...
Loading historical data...
Loading historical data...
Loading historical data...
Loading historical data...
Loading historical data...

Documentation

Showing up to 5 results
|